Change the Weather History Date:

Sunday, November 25, 2012

  Actual Average Record
Temperature  
Mean Temperature 60 °F -  
Max Temperature 63 °F 63 °F 81 °F (2008)
Min Temperature 57 °F 49 °F 44 °F (2010)
Degree Days  
Heating Degree Days 5    
Growing Degree Days 10 (Base 50)    
Moisture  
Dew Point 54 °F    
Average Humidity 80    
Maximum Humidity 88    
Minimum Humidity 72    
Precipitation  
Precipitation 0.00 in - - ()
Sea Level Pressure  
Sea Level Pressure 29.94 in    
Wind  
Wind Speed 2 mph (South)    
Max Wind Speed 6 mph    
Max Gust Speed -    
Visibility 6 miles    
Events Fog    
Averages and records for this station are not official NWS values.
T = Trace of Precipitation, MM = Missing Value Source: NWS Daily Summary

Daily Weather History Graph

Daily Weather History Graph

Search for Another Location

Airport or City:

Trip Planner

Search our weather history database for the weather conditions in past years. The results will help you decide how hot, cold, wet, or windy it might be!

Date:

Astronomy

Nov. 25, 2012 Rise Set
Actual Time 6:28 AM PST 4:43 PM PST
Civil Twilight 6:01 AM PST 5:10 PM PST
Nautical Twilight 5:31 AM PST 5:40 PM PST
Astronomical Twilight 5:01 AM PST 6:09 PM PST
Moon 2:58 PM PST (11/25) 3:52 AM PST (11/25)
Length of Visible Light 11h 08m
Length of Day
10h 15m
Waxing Gibbous, 93% of the Moon is Illuminated
Nov 25
Waxing Gibbous
Nov 28
Full
Dec 6
Last Quarter
Dec 13
New
Dec 19
First Quarter

Hourly Weather History & Observations

Time (PST) Temp. Dew Point Humidity Pressure Visibility Wind Dir Wind Speed Gust Speed Precip Events Conditions
12:52 AM 59.0 °F 55.0 °F 87% 29.94 in 2.5 mi Calm Calm - N/A   Overcast
1:52 AM 59.0 °F 55.0 °F 87% 29.93 in 2.5 mi Calm Calm - N/A   Overcast
2:52 AM 59.0 °F 54.0 °F 83% 29.92 in 1.0 mi East 4.6 mph - N/A   Overcast
3:52 AM 57.9 °F 54.0 °F 87% 29.92 in 0.8 mi South 4.6 mph - N/A   Overcast
4:52 AM 59.0 °F 54.0 °F 83% 29.93 in 0.5 mi South 4.6 mph - N/A Fog Fog
5:52 AM 57.9 °F 54.0 °F 87% 29.94 in 0.2 mi Calm Calm - N/A Fog Fog
6:11 AM 57.2 °F 53.6 °F 88% 29.95 in 1.2 mi Calm Calm - N/A   Overcast
6:52 AM 57.9 °F 54.0 °F 87% 29.96 in 1.2 mi Calm Calm - N/A   Overcast
7:52 AM 57.9 °F 54.0 °F 87% 29.97 in 2.0 mi Calm Calm - N/A   Overcast
8:52 AM 59.0 °F 53.1 °F 81% 29.98 in 2.0 mi South 5.8 mph - N/A   Overcast
9:52 AM 59.0 °F 54.0 °F 83% 29.98 in 2.0 mi South 5.8 mph - N/A   Overcast
10:52 AM 61.0 °F 53.1 °F 75% 29.96 in 4.0 mi SSE 5.8 mph - N/A   Overcast
11:52 AM 61.0 °F 53.1 °F 75% 29.94 in 7.0 mi SSW 3.5 mph - N/A   Overcast
12:52 PM 63.0 °F 54.0 °F 72% 29.92 in 8.0 mi SSW 4.6 mph - N/A   Overcast
1:52 PM 63.0 °F 54.0 °F 72% 29.91 in 10.0 mi SSW 5.8 mph - N/A   Mostly Cloudy
2:52 PM 63.0 °F 54.0 °F 72% 29.90 in 10.0 mi South 4.6 mph - N/A   Mostly Cloudy
3:52 PM 61.0 °F 53.1 °F 75% 29.90 in 10.0 mi South 3.5 mph - N/A   Mostly Cloudy
4:52 PM 60.1 °F 52.0 °F 75% 29.89 in 10.0 mi SSW 3.5 mph - N/A   Scattered Clouds
5:52 PM 59.0 °F 53.1 °F 81% 29.91 in 10.0 mi South 4.6 mph - N/A   Scattered Clouds
6:52 PM 59.0 °F 53.1 °F 81% 29.93 in 10.0 mi Calm Calm - N/A   Mostly Cloudy
7:52 PM 59.0 °F 54.0 °F 83% 29.94 in 10.0 mi Calm Calm - N/A   Mostly Cloudy
8:52 PM 60.1 °F 54.0 °F 80% 29.96 in 10.0 mi SW 3.5 mph - N/A   Mostly Cloudy
9:52 PM 61.0 °F 54.0 °F 78% 29.98 in 10.0 mi Calm Calm - N/A   Overcast
10:52 PM 61.0 °F 53.1 °F 75% 29.98 in 9.0 mi Calm Calm - N/A   Overcast
11:52 PM 61.0 °F 53.1 °F 75% 29.97 in 9.0 mi SE 5.8 mph - N/A   Overcast